Regional Weather Roundup
Issued by NWS

Home | Current Version | Previous Version | Text Only | Print | Product List | Glossary On
Versions: 1 2 3 4 5 6 7 8 9 10 11 12 13 14 15 16 17 18 19 20 21 22 23 24 25 26 27 28 29 30 31 32 33 34 35 36 37 38 39 40 41 42 43 44 45 46 47 48 49 50
000
ASUS45 KABQ 251410
RWRNM
WEATHER ROUNDUP FOR NEW MEXICO
NATIONAL WEATHER SERVICE ALBUQUERQUE NM
800 AM MDT SAT APR 25 2015

NOTE: "FAIR" MEANS FEW OR NO CLOUDS BELOW 12,000 FEET AGL WITH NO
       SIGNIFICANT WEATHER OR OBSTRUCTIONS TO VISION.

      THIS PRODUCT IS RELEASED AS TWO VERSIONS.  ONE VERSION NEAR
      THE TOP OF THE HOUR CONTAINING PRELIMINARY DATA FROM ALBUQUERQUE
      AND OTHER STATIONS.  A FINAL VERSION WITH ADDITIONAL DATA IS
      ISSUED ABOUT 10 MINUTES AFTER THE HOUR.

NMZ501-503-504-510>518-251500-
NORTHWEST PLATEAU/NORTHCENTRAL MOUNTAINS

CITY           SKY/WX    TMP DP  RH WIND       PRES   REMARKS
FARMINGTON     MOSUNNY   46  37  71 E8        29.92S
LOS ALAMOS     PTSUNNY   43  33  69 CALM      29.99S
SANTA FE       SUNNY     45  32  60 CALM      29.97S
TAOS           CLOUDY    43  28  56 SW9       29.99R
ANGEL FIRE     CLOUDY    37  31  78 SW5       30.01R WCI  33

$$
NMZ402-403-502-505>509-251500-
WESTCENTRAL MOUNTAINS/SOUTHWEST MOUNTAINS

CITY           SKY/WX    TMP DP  RH WIND       PRES   REMARKS
GALLUP         PTSUNNY   43  36  76 S9        29.99S
GRANTS         CLOUDY    46  34  62 W12G17    30.01S
SILVER CITY      N/A     50  34  53 NW8       30.04R

$$
NMZ407-409-411-412-251500-
SOUTHERN DESERTS

CITY           SKY/WX    TMP DP  RH WIND       PRES   REMARKS
LORDSBURG      FAIR      50  32  50 S5        30.00R
DEMING         SUNNY     48  33  56 W5        30.01R
LAS CRUCES     SUNNY     53  33  46 W7        30.01S
HOLLOMAN AFB   SUNNY     52  32  47 SE6       29.97R
ALAMOGORDO     SUNNY     55  32  41 S8        29.99R
T OR C         SUNNY     51  32  48 W5        29.98R

$$
NMZ519>523-251500-
CENTRAL VALLEYS/CENTRAL HIGHLANDS

CITY           SKY/WX    TMP DP  RH WIND       PRES   REMARKS
ALBUQUERQUE    MOSUNNY   48  36  63 CALM      29.98R
DOUBLE EAGLE   MOSUNNY   45  34  65 CALM      30.00R
MORIARTY ARPT  FAIR      46  31  56 N9        29.99S
CLINES CORNERS SUNNY     43  32  65 NW14      29.96S
BELEN          FAIR      51  33  50 S8        29.99R
SOCORRO        FAIR      53  31  43 SE5       29.98R

$$
NMZ524>526-539-540-251500-
SOUTHCENTRAL MOUNTAINS

CITY           SKY/WX    TMP DP  RH WIND       PRES   REMARKS
RUIDOSO        SUNNY     46  28  49 N7        30.04S

$$
NMZ527>531-251500-
NORTHEAST HIGHLANDS/NORTHEAST PLAINS

CITY           SKY/WX    TMP DP  RH WIND       PRES   REMARKS
LAS VEGAS      SUNNY     47  27  45 SW3       29.94R
RATON          SUNNY     42  27  55 NE7       29.88S
CLAYTON        SUNNY     57  26  30 W14       29.80S

$$
NMZ532>537-251500-
EASTCENTRAL PLAINS

CITY           SKY/WX    TMP DP  RH WIND       PRES   REMARKS
TUCUMCARI      SUNNY     58  34  40 W16       29.82S
CANNON AFB     SUNNY     55  35  46 W20       29.86S
CLOVIS AIRPORT SUNNY     54  34  47 W18G24    29.86S

$$
NMZ028-029-538-251500-
SOUTHEAST PLAINS

CITY           SKY/WX    TMP DP  RH WIND       PRES   REMARKS
ROSWELL        SUNNY     56  35  45 CALM      29.92R
ARTESIA        SUNNY     59  32  36 W12       29.94R
CARLSBAD       SUNNY     65  33  30 W12       29.92R
HOBBS          SUNNY     57  32  38 W8        29.93R


$$


USA.gov is the U.S. government's official web portal to all federal, state and local government web resources and services.